Regional Weather Roundup
Issued by NWS

Home | Current Version | Previous Version | Graphics & Text | Print | Product List | Glossary Off
Versions: 1 2 3 4 5 6 7 8 9 10 11 12 13 14 15 16 17 18 19 20 21 22 23 24 25 26 27 28 29 30 31 32 33 34 35 36 37 38 39 40 41 42 43 44 45 46 47 48 49 50

000
ASUS43 KDTX 141910
RWRMI
MICHIGAN HOURLY REGIONAL WEATHER ROUNDUP
NATIONAL WEATHER SERVICE DETROIT/PONTIAC MI
300 PM EDT SUN SEP 14 2014

NOTE: "FAIR" INDICATES FEW OR NO CLOUDS BELOW 12,000 FEET WITH NO
SIGNIFICANT WEATHER AND/OR OBSTRUCTION TO VISIBILITY.

MIZ047>049-052>055-059>063-066>070-074>076-081>083-142000-
SOUTHEAST LOWER MICHIGAN

CITY           SKY/WX    TMP DP  RH WIND       PRES   REMARKS
ADRIAN         PTSUNNY   63  41  44 W10       30.28F
ALMA           PTSUNNY   61  43  51 SW10G17   30.24F
ANN ARBOR      MOSUNNY   61  38  42 SW6       30.27F
BAD AXE        CLOUDY    57  42  57 SW9       30.25F
CARO           CLOUDY    59  42  52 SW12      30.24F
DETROIT CITY   PTSUNNY   62  40  44 SW9       30.27F
DETROIT        PTSUNNY   62  42  47 S9        30.28F
FLINT          CLOUDY    61  42  49 SW8       30.26F
GROSSE ILE     CLOUDY    59  43  55 S6        30.27F
HILLSDALE      CLOUDY    60  42  49 W6        30.26F
HOWELL         CLOUDY    58  41  53 S9        30.26F

CITY           SKY/WX    TMP DP  RH WIND       PRES   REMARKS
JACKSON        CLOUDY    60  42  51 VRB5      30.26F
LAMBERTVILLE   CLOUDY    61  41  48 NW3       30.28F
LANSING        PTSUNNY   61  42  49 S13       30.25F
LAPEER         CLOUDY    58  39  48 W3        30.27F
MASON          CLOUDY    59  43  55 S3        30.26F
MONROE         CLOUDY    61  43  51 SW3       30.26F
MT. CLEMENS    PTSUNNY   59  40  50 S3        30.25F
PONTIAC        PTSUNNY   59  39  47 SW8       30.26F
PORT HOPE        N/A     58  39  49 VRB3      30.23F
PORT HURON     CLOUDY    59  43  55 NW5       30.27F
TRI CITIES     CLOUDY    61  41  47 S12       30.24F
TROY           CLOUDY    62  37  39 W6        30.28F
SAGINAW HB     CLOUDY    61  39  44 SW10G17   30.24F
$$
MIZ043>046-050>051-056>058-064>065-071>073-077>080-142000-
SOUTHWEST LOWER MICHIGAN

CITY           SKY/WX    TMP DP  RH WIND       PRES   REMARKS
BATTLE CREEK   PTSUNNY   63  43  48 SW10      30.26F
BENTON HARBOR  SUNNY     62  44  51 W15G24    30.25F
BIG RAPIDS     CLOUDY    56  47  71 SW9       30.21F
COLDWATER      PTSUNNY   61  44  54 SW7       30.26F
FREMONT        CLOUDY    60  40  47 SW13G22   30.23F
HOLLAND        PTSUNNY   61  46  57 W15       30.26F
GRAND RAPIDS   MOSUNNY   61  46  57 SW10G21   30.25F
IONIA          MOCLDY    62  43  49 SW15G21   30.24F
KALAMAZOO      MOSUNNY   62  40  44 SW9       30.26F
LUDINGTON      SUNNY     59  43  55 SW17      30.21F
MARSHALL       CLOUDY    59  43  55 SW9       30.26F
MOUNT PLEASANT CLOUDY    59  44  56 S10       30.22F
MUSKEGON       MOSUNNY   59  41  51 SW14G23   30.24F
SOUTH HAVEN    SUNNY     62  44  52 W13       30.25F
$$
MIZ016>042-142000-
NORTHERN LOWER MICHIGAN

CITY           SKY/WX    TMP DP  RH WIND       PRES   REMARKS
ALPENA         CLOUDY    57  40  52 SW12G20   30.21F
BEAVER ISLAND  CLOUDY    59  41  50 SW12G25   30.15F
BELLAIRE       CLOUDY    58  43  56 S10G17    30.18F
CADILLAC       CLOUDY    54  44  69 SW9       30.19F
CHARLEVOIX     PTSUNNY   58  43  57 SW10G21   30.19F
FRANKFORT      MOSUNNY   61  39  45 SW12G21   30.18F
GAYLORD        PTSUNNY   53  40  61 SW13      30.19F
GRAYLING       PTSUNNY   56  44  64 S9        30.21F
HARBOR SPRINGS CLOUDY    58  40  51 SW8G16    30.17S
HOUGHTON LAKE  CLOUDY    56  44  64 S13       30.22F
MANISTEE       MOSUNNY   61  37  41 SW14G21   30.20F
OSCODA         CLOUDY    57  41  54 SW13      30.22F
PELLSTON       PTSUNNY   58  41  53 SW10      30.17F
ROGERS CITY    CLOUDY    56  44  63 SW12G17   30.20F
TRAVERSE CITY  PTSUNNY   60  42  51 SW9G20    30.16F
$$
MIZ007>008-015-142000-
EASTERN UPPER MICHIGAN

CITY           SKY/WX    TMP DP  RH WIND       PRES   REMARKS
KINROSS        PTSUNNY   55  46  71 S12G18    30.14F
MACKINAC ISLAN PTSUNNY   56  42  59 S10G21    30.15F
NEWBERRY       CLOUDY    57  43  60 SW18G25   30.11F
S. S. MARIE    CLOUDY    53  47  79 SE7       30.13F
MUNISING         N/A     61  41  47 S17G26    30.04F
$$
MIZ004>006-011>014-085-142000-
CENTRAL UPPER MICHIGAN

CITY           SKY/WX    TMP DP  RH WIND       PRES   REMARKS
MANISTIQUE     MOSUNNY   59  44  58 S18G26    30.10F
ESCANABA       PTSUNNY   61  45  55 S23G29    30.07F
MENOMINEE      PTSUNNY   61  45  55 SW14G23   30.09F
SAWYER-GWINN   PTSUNNY   57  45  62 S15G23    30.03F
$$
MIZ001>003-009>011-084-142000-
WESTERN UPPER MICHIGAN

CITY           SKY/WX    TMP DP  RH WIND       PRES   REMARKS
IRON MOUNTAIN  CLOUDY    61  43  51 S15G22    30.03F
HOUGHTON       MOSUNNY   58  43  57 W21       29.99F
COPPER HARBOR    N/A     57  47  69 VRB7G17   29.98F
IRONWOOD       MOSUNNY   57  41  54 W16G24    29.99F
$$

ABBREVIATIONS USED IN REMARKS
   TC - TEMPERATURE IN CELSIUS
  WCI - WIND CHILL INDEX
   HX - HEAT INDEX
  VSB - VISIBILITY



USA.gov is the U.S. government's official web portal to all federal, state and local government web resources and services.